Regional Weather Roundup
Issued by NWS

Home | Current Version | Previous Version | Graphics & Text | Print | Product List | Glossary Off
Versions: 1 2 3 4 5 6 7 8 9 10 11 12 13 14 15 16 17 18 19 20 21 22 23 24 25 26 27 28 29 30 31 32 33 34 35 36 37 38 39 40 41 42 43 44 45 46 47 48 49 50

000
ASUS43 KFSD 270302
RWRSD

WEATHER ROUNDUP FOR SOUTH DAKOTA
NATIONAL WEATHER SERVICE SIOUX FALLS SD
1000 PM CDT FRI MAY 26 2017

NOTE: "FAIR" INDICATES FEW OR NO CLOUDS BELOW 12,000 FEET WITH NO
SIGNIFICANT WEATHER AND/OR OBSTRUCTIONS TO VISIBILITY.


SDZ001>005-009-010-012>017-270400-
NORTHWEST AND NORTH CENTRAL SOUTH DAKOTA

CITY           SKY/WX    TMP DP  RH WIND       PRES   REMARKS
BUFFALO          N/A     56  39  53 NW7       29.86R
FAITH            N/A     59  38  45 NW6       29.90S
MOBRIDGE       CLOUDY    51  39  63 CALM      29.85R
$$

SDZ012>016-024>037-041>051-057-063-072>074-270400-
SOUTHWEST AND SOUTH CENTRAL SOUTH DAKOTA

CITY           SKY/WX    TMP DP  RH WIND       PRES   REMARKS
RAPID CTY ARPT LGT RAIN  52  47  83 S5        29.96R
PIERRE         MOCLDY    64  38  38 W5        29.87S
CUSTER         CLOUDY    44  41  89 E5        29.98S
ELLSWORTH AFB  LGT RAIN  54  48  81 CALM      29.95R
PHILIP         CLOUDY    59  43  55 SW7       29.92R
PINE RIDGE     RAIN      52  50  93 CALM      29.98R FOG
SPEARFISH      CLOUDY    52  45  76 S9        29.97S
WINNER         FAIR      63  45  51 N6        29.90S
$$

SDZ004>011-016>023-039-040-270400-
NORTHEAST SOUTH DAKOTA

CITY           SKY/WX    TMP DP  RH WIND       PRES   REMARKS
ABERDEEN       CLOUDY    58  42  55 CALM      29.85R
WATERTOWN      CLOUDY    58  44  60 W5        29.88R
BROOKINGS      CLOUDY    57  46  66 NW6       29.89R
SISSETON         N/A     56  48  74 W6        29.83R
$$

SDZ017-020-022-023-036>040-048>070-270400-
SOUTHEAST SOUTH DAKOTA

CITY           SKY/WX    TMP DP  RH WIND       PRES   REMARKS
SIOUX FALLS    PTCLDY    61  45  55 W5        29.89R
HURON          CLOUDY    59  47  64 SW5       29.87R
CHAMBERLAIN    CLOUDY    63  45  51 CALM      29.88F
MITCHELL       CLOUDY    61  44  53 W6        29.89R
YANKTON        CLEAR     63  46  54 W3        29.89R
$$

ABBREVIATIONS USED IN REMARKS
   TC - TEMPERATURE IN CELSIUS
  WCI - WIND CHILL INDEX
   HX - HEAT INDEX
  VSB - VISIBILITY




USA.gov is the U.S. government's official web portal to all federal, state and local government web resources and services.